This demonstration page uses our WeatherBlox Daily Observations layout. Learn more.

Left ArrowRight Arrow

39.01783, -85.05884

Hourly Observations for April 16, 2019

Temp ( °F °C ) Dew Point ( °F °C ) Humidity (%) Winds ( mph kmh ) Pressure ( in mb ) Visibility ( mi km ) Precip ( " mm )
12:52 am 00:52 Clear 41 5 33 0.6 73 73 S 6 9 30.14 1021 10 16 N/A
1:52 am 01:52 Partly Cloudy 42 5.6 34 1.1 73 73 S 9 15 30.13 1020 10 16 N/A
2:52 am 02:52 Partly Cloudy 42 5.6 34 1.1 73 73 S 9 15 30.13 1020 10 16 N/A
3:52 am 03:52 Mostly Clear 41 5 34 1.1 76 76 S 10 17 30.11 1020 10 16 N/A
4:52 am 04:52 Mostly Clear 40 4.4 34 1.1 79 79 S 7 11 30.13 1020 10 16 N/A
5:52 am 05:52 Mostly Clear 38 3.3 33 0.6 83 83 SSE 7 11 30.13 1020 10 16 N/A
6:52 am 06:52 Mostly Clear 38 3.3 34 1.1 86 86 SSE 9 15 30.13 1020 10 16 N/A
7:52 am 07:52 Mostly Cloudy 41 5 35 1.7 79 79 S 9 15 30.14 1021 10 16 N/A
8:52 am 08:52 Partly Cloudy 48 8.9 37 2.8 66 66 S 12 19 30.14 1021 10 16 N/A
9:52 am 09:52 Partly Cloudy 56 13.3 39 3.9 53 53 S 10 17 30.13 1020 10 16 N/A
10:52 am 10:52 Mostly Cloudy 59 15 40 4.4 49 49 SSW 14 22 30.11 1020 10 16 N/A
11:52 am 11:52 Mostly Cloudy 65 18.3 43 6.1 45 45 SW 15 24 30.09 1019 10 16 N/A
12:52 pm 12:52 Mostly Cloudy 68 20 44 6.7 42 42 SSW 15 24 30.07 1018 10 16 N/A
1:52 pm 13:52 Partly Cloudy 71 21.7 46 7.8 41 41 S 12 19 30.04 1017 10 16 N/A
2:52 pm 14:52 Partly Cloudy 73 22.8 45 7.2 37 37 SW 18 30 30.02 1017 10 16 N/A
3:52 pm 15:52 Partly Cloudy 74 23.3 45 7.2 36 36 WSW 17 28 29.98 1015 10 16 N/A
4:52 pm 16:52 Partly Cloudy 74 23.3 46 7.8 37 37 SSW 15 24 29.96 1015 10 16 N/A
5:52 pm 17:52 Mostly Sunny 75 23.9 46 7.8 36 36 SSW 10 17 29.96 1014 10 16 N/A
6:52 pm 18:52 Mostly Sunny 74 23.3 45 7.2 36 36 SSW 12 19 29.96 1014 10 16 N/A
7:52 pm 19:52 Mostly Sunny 72 22.2 47 8.3 41 41 SSW 7 11 29.96 1014 10 16 N/A
8:52 pm 20:52 Mostly Clear 68 20 46 7.8 45 45 SSW 7 11 29.97 1015 10 16 N/A
9:52 pm 21:52 Mostly Clear 64 17.8 46 7.8 52 52 S 7 11 29.98 1015 10 16 N/A
10:52 pm 22:52 Mostly Clear 63 17.2 45 7.2 52 52 SSW 6 9 29.98 1015 10 16 N/A
11:52 pm 23:52 Mostly Clear 60 15.6 45 7.2 58 58 SSW 6 9 29.99 1016 10 16 N/A

Powered by AerisWeather